Mankato, MN

11:10 AM CDT on October 18, 2017 (GMT -0500)
Mankato Regional

Weather History for KMKT - May, 2013

Change the Weather History Date:

Saturday, May 11, 2013

  Actual Average Record
Temperature  
Mean Temperature 49 °F -  
Max Temperature 57 °F 64 °F 86 °F (2004)
Min Temperature 41 °F 45 °F 37 °F (2008)
Degree Days  
Heating Degree Days 16    
Moisture  
Dew Point 26 °F    
Average Humidity 45    
Maximum Humidity 71    
Minimum Humidity 24    
Precipitation  
Precipitation 0.00 in - - ()
Sea Level Pressure  
Sea Level Pressure 30.11 in    
Wind  
Wind Speed 20 mph (NNW)    
Max Wind Speed 34 mph    
Max Gust Speed 45 mph    
Visibility 10 miles    
Events      
Averages and records for this station are not official NWS values.
T = Trace of Precipitation, MM = Missing Value Source: NWS Daily Summary

Daily Weather History Graph

Daily Weather History Graph

Search for Another Location

Airport or City:

Trip Planner

Search our weather history database for the weather conditions in past years. The results will help you decide how hot, cold, wet, or windy it might be!

Date:

Astronomy

May. 11, 2013 Rise Set
Actual Time 5:53 AM CDT 8:31 PM CDT
Civil Twilight 5:20 AM CDT 9:04 PM CDT
Nautical Twilight 4:38 AM CDT 9:46 PM CDT
Astronomical Twilight 3:51 AM CDT 10:34 PM CDT
Moon 7:00 AM CDT (5/11) 10:13 PM CDT (5/11)
Length of Visible Light 15h 44m
Length of Day
14h 38m
Waxing Crescent, 3% of the Moon is Illuminated
May 11
Waxing Crescent
May 17
First Quarter
May 24
Full
May 31
Last Quarter
Jun 8
New

Hourly Weather History & Observations

Time (CDT) Temp. Windchill Dew Point Humidity Pressure Visibility Wind Dir Wind Speed Gust Speed Precip Events Conditions
12:15 AM 57.2 °F - 35.6 °F 44% 29.92 in 10.0 mi West 13.8 mph 18.4 mph N/A   Scattered Clouds
12:35 AM 57.2 °F - 39.2 °F 51% 29.92 in 10.0 mi WNW 19.6 mph 26.5 mph N/A   Mostly Cloudy
12:55 AM 55.4 °F - 39.2 °F 54% 29.93 in 10.0 mi NW 20.7 mph 27.6 mph N/A   Partly Cloudy
1:15 AM 55.4 °F - 37.4 °F 51% 29.95 in 10.0 mi NNW 29.9 mph 40.3 mph N/A   Clear
1:35 AM 53.6 °F - 37.4 °F 54% 29.96 in 10.0 mi NW 17.3 mph - N/A   Clear
1:55 AM 51.8 °F - 37.4 °F 58% 29.97 in 10.0 mi NW 15.0 mph 23.0 mph N/A   Clear
2:15 AM 51.8 °F - 37.4 °F 58% 29.98 in 10.0 mi NNW 24.2 mph 29.9 mph N/A   Clear
2:35 AM 50.0 °F - 37.4 °F 62% 29.99 in 10.0 mi NNW 19.6 mph 28.8 mph N/A   Clear
2:55 AM 48.2 °F - 37.4 °F 66% 30.00 in 10.0 mi NNW 17.3 mph 20.7 mph N/A   Clear
3:15 AM 48.2 °F - 35.6 °F 62% 30.01 in 10.0 mi NNW 16.1 mph - N/A   Clear
3:35 AM 48.2 °F - 35.6 °F 62% 30.02 in 10.0 mi NNW 13.8 mph 25.3 mph N/A   Clear
3:55 AM 46.4 °F 39.2 °F 35.6 °F 66% 30.02 in 10.0 mi NW 18.4 mph - N/A   Clear
4:15 AM 46.4 °F 39.2 °F 35.6 °F 66% 30.03 in 10.0 mi NW 18.4 mph - N/A   Clear
4:35 AM 44.6 °F 36.6 °F 35.6 °F 71% 30.04 in 10.0 mi NW 19.6 mph - N/A   Clear
4:55 AM 44.6 °F 36.6 °F 33.8 °F 66% 30.05 in 10.0 mi NNW 19.6 mph 24.2 mph N/A   Clear
5:15 AM 42.8 °F 35.1 °F 33.8 °F 70% 30.06 in 10.0 mi NW 16.1 mph 21.9 mph N/A   Clear
5:35 AM 42.8 °F 34.8 °F 32.0 °F 66% 30.06 in 10.0 mi NW 17.3 mph 26.5 mph N/A   Clear
5:55 AM 42.8 °F 34.5 °F 30.2 °F 61% 30.07 in 10.0 mi NNW 18.4 mph - N/A   Clear
6:15 AM 42.8 °F 35.1 °F 28.4 °F 57% 30.08 in 10.0 mi NNW 16.1 mph - N/A   Clear
6:35 AM 41.0 °F 32.5 °F 30.2 °F 65% 30.09 in 10.0 mi NNW 17.3 mph - N/A   Clear
6:55 AM 42.8 °F 34.5 °F 28.4 °F 57% 30.10 in 10.0 mi NNW 18.4 mph - N/A   Clear
7:15 AM 42.8 °F 34.0 °F 28.4 °F 57% 30.10 in 10.0 mi NNW 20.7 mph 24.2 mph N/A   Clear
7:35 AM 42.8 °F 33.8 °F 28.4 °F 57% 30.11 in 10.0 mi NNW 21.9 mph 26.5 mph N/A   Clear
7:55 AM 42.8 °F 33.8 °F 28.4 °F 57% 30.11 in 10.0 mi NNW 21.9 mph 26.5 mph N/A   Clear
8:15 AM 44.6 °F 36.4 °F 26.6 °F 49% 30.12 in 10.0 mi NNW 20.7 mph 26.5 mph N/A   Clear
8:35 AM 44.6 °F 35.5 °F 26.6 °F 49% 30.12 in 10.0 mi NNW 25.3 mph 31.1 mph N/A   Clear
8:55 AM 46.4 °F 38.3 °F 26.6 °F 46% 30.13 in 10.0 mi North 23.0 mph 31.1 mph N/A   Scattered Clouds
9:15 AM 44.6 °F 35.7 °F 28.4 °F 53% 30.13 in 10.0 mi North 24.2 mph 31.1 mph N/A   Mostly Cloudy
9:35 AM 46.4 °F 38.3 °F 28.4 °F 50% 30.14 in 10.0 mi NNW 23.0 mph 32.2 mph N/A   Overcast
9:55 AM 46.4 °F 37.9 °F 26.6 °F 46% 30.14 in 10.0 mi NNW 25.3 mph 35.7 mph N/A   Mostly Cloudy
10:15 AM - - - N/A% 30.13 in 10.0 mi NNW 21.9 mph 34.5 mph N/A   Mostly Cloudy
10:35 AM - - - N/A% 30.13 in 10.0 mi NNW 28.8 mph 36.8 mph N/A   Mostly Cloudy
10:55 AM - - - N/A% 30.13 in 10.0 mi NNW 29.9 mph 36.8 mph N/A   Mostly Cloudy
11:15 AM - - - N/A% 30.14 in 10.0 mi NNW 28.8 mph 36.8 mph N/A   Scattered Clouds
11:35 AM 48.2 °F - 24.8 °F 40% 30.15 in 10.0 mi NW 23.0 mph 35.7 mph N/A   Mostly Cloudy
11:55 AM 48.2 °F - 21.2 °F 34% 30.15 in 10.0 mi NNW 27.6 mph 36.8 mph N/A   Mostly Cloudy
12:15 PM - - - N/A% 30.14 in 10.0 mi NNW 25.3 mph 36.8 mph N/A   Mostly Cloudy
12:35 PM 51.8 °F - 21.2 °F 30% 30.14 in 10.0 mi NW 23.0 mph 44.9 mph N/A   Mostly Cloudy
12:55 PM - - - N/A% 30.14 in 10.0 mi NNW 27.6 mph 36.8 mph N/A   Scattered Clouds
1:15 PM 51.8 °F - 19.4 °F 28% 30.15 in 10.0 mi NW 20.7 mph 36.8 mph N/A   Scattered Clouds
1:35 PM - - - N/A% 30.14 in 10.0 mi NNW 27.6 mph 40.3 mph N/A   Partly Cloudy
1:55 PM - - - N/A% 30.13 in 10.0 mi NNW 27.6 mph 40.3 mph N/A   Clear
2:15 PM 51.8 °F - 17.6 °F 26% 30.14 in 10.0 mi NNW 29.9 mph 35.7 mph N/A   Partly Cloudy
2:35 PM 53.6 °F - 17.6 °F 24% 30.14 in 10.0 mi NNW 24.2 mph 39.1 mph N/A   Clear
2:55 PM - - - N/A% 30.14 in 10.0 mi NW 24.2 mph 36.8 mph N/A   Clear
3:15 PM - - - N/A% 30.14 in 10.0 mi NNW 34.5 mph 42.6 mph N/A   Clear
3:35 PM 51.8 °F - 19.4 °F 28% 30.14 in 10.0 mi NNW 34.5 mph 39.1 mph N/A   Partly Cloudy
4:15 PM - - - N/A% 30.14 in 10.0 mi NNW 28.8 mph 40.3 mph N/A   Partly Cloudy
4:35 PM 51.8 °F - 19.4 °F 28% 30.14 in 10.0 mi NNW 27.6 mph 35.7 mph N/A   Partly Cloudy
4:55 PM 51.8 °F - 19.4 °F 28% 30.14 in 10.0 mi NW 24.2 mph 36.8 mph N/A   Scattered Clouds
5:15 PM 51.8 °F - 19.4 °F 28% 30.15 in 10.0 mi NNW 26.5 mph 39.1 mph N/A   Partly Cloudy
5:35 PM - - - N/A% 30.14 in 10.0 mi NW 27.6 mph 36.8 mph N/A   Partly Cloudy
5:55 PM - - - N/A% 30.14 in 10.0 mi NNW 26.5 mph 34.5 mph N/A   Scattered Clouds
6:15 PM 51.8 °F - 19.4 °F 28% 30.15 in 10.0 mi North 25.3 mph 32.2 mph N/A   Partly Cloudy
6:35 PM - - - N/A% 30.15 in 10.0 mi NNW 25.3 mph 35.7 mph N/A   Clear
6:55 PM 51.8 °F - 17.6 °F 26% 30.15 in 10.0 mi NNW 20.7 mph 31.1 mph N/A   Clear
7:15 PM 51.8 °F - 17.6 °F 26% 30.15 in 10.0 mi NNW 19.6 mph 28.8 mph N/A   Clear
7:35 PM 50.0 °F - 17.6 °F 28% 30.15 in 10.0 mi NNW 21.9 mph 31.1 mph N/A   Clear
7:55 PM 48.2 °F - 17.6 °F 30% 30.15 in 10.0 mi NNW 23.0 mph 29.9 mph N/A   Clear
8:15 PM 48.2 °F - 17.6 °F 30% 30.16 in 10.0 mi NNW 20.7 mph 27.6 mph N/A   Clear
8:35 PM 48.2 °F - 17.6 °F 30% 30.16 in 10.0 mi NNW 19.6 mph 27.6 mph N/A   Clear
8:55 PM 46.4 °F 39.5 °F 17.6 °F 32% 30.16 in 10.0 mi NNW 17.3 mph - N/A   Clear
9:15 PM 46.4 °F 40.4 °F 17.6 °F 32% 30.17 in 10.0 mi NNW 13.8 mph - N/A   Clear
9:35 PM 44.6 °F 38.4 °F 19.4 °F 37% 30.18 in 10.0 mi NW 12.7 mph - N/A   Clear
9:55 PM 44.6 °F 38.8 °F 19.4 °F 37% 30.18 in 10.0 mi NW 11.5 mph - N/A   Clear
10:15 PM 44.6 °F 38.1 °F 17.6 °F 34% 30.19 in 10.0 mi NW 13.8 mph - N/A   Clear
10:35 PM 44.6 °F 38.1 °F 19.4 °F 37% 30.19 in 10.0 mi NW 13.8 mph 18.4 mph N/A   Clear
10:55 PM 44.6 °F 38.4 °F 17.6 °F 34% 30.19 in 10.0 mi NW 12.7 mph - N/A   Clear
11:15 PM 42.8 °F 36.6 °F 19.4 °F 39% 30.19 in 10.0 mi NW 11.5 mph - N/A   Clear
11:35 PM 42.8 °F 37.0 °F 19.4 °F 39% 30.19 in 10.0 mi NNW 10.4 mph - N/A   Clear
11:55 PM 42.8 °F 37.0 °F 19.4 °F 39% 30.19 in 10.0 mi NNW 10.4 mph - N/A   Clear